Location: Bad Salzschlirf
(50.3750°N, 9.3000°E)
Time: 06:56:19
(UTC+02:00)

ISS - Visible Passes

Search period start: 19 June 2024 00:00
Search period end: 29 June 2024 00:00
Orbit: 411 x 425 km, 51.6° (Epoch: 18 June)

Date Brightness Start Highest point End Pass type
(mag) Time Alt. Az. Time Alt. Az. Time Alt. Az.
25 Jun -1.4 03:49:19 10° SSE 03:50:49 13° SE 03:52:19 10° ESE visible
27 Jun -2.4 03:48:46 14° SSW 03:50:56 26° SE 03:53:47 10° E visible
28 Jun -2.0 03:02:13 17° SSE 03:02:56 18° SE 03:05:17 10° E visible
